Lid_Strength_Index
3 3 3 3 4 5 5 5 4 4 5 5 5 4 4 3 3 3 4 1 1 -1 -1 1 1 2 2 5 4 4 10 11 10 9 9 6 7 5 4 5 4 4 4 3 2
3 3 3 3 4 4 5 5 5 5 5 5 5 4 4 3 4 5 -0 -2 -2 -1 1 3 4 4 6 6 5 7 10 9 6 7 7 6 6 6 6 6 6 5 3 2 2
3 3 3 3 3 4 5 5 5 5 5 5 5 4 4 3 5 4 -2 -1 -1 -1 1 2 2 4 6 5 5 6 9 6 6 5 5 6 6 5 6 7 6 6 4 3 3
3 3 3 3 3 3 5 5 6 5 6 5 5 4 3 4 8 2 -2 -1 -1 -0 1 3 4 6 7 7 5 7 5 5 5 5 6 6 5 6 6 6 4 4 3 3 3
3 3 3 3 3 3 3 5 6 6 6 5 5 4 5 6 6 0 -1 -1 0 1 3 4 5 5 6 5 6 7 6 5 5 5 5 5 6 6 6 4 3 3 3 3 3
4 3 3 3 3 3 3 4 5 6 6 5 4 4 5 8 1 -0 0 1 1 2 3 3 4 4 5 6 7 5 6 6 5 6 5 8 7 6 5 4 4 4 4 4 3
3 3 3 3 3 3 4 4 5 6 6 5 4 4 7 6 1 0 1 1 1 2 3 2 3 5 5 6 5 5 8 7 6 6 7 6 9 8 5 4 5 4 4 4 3
4 4 3 4 4 4 4 4 4 5 5 4 3 6 8 3 2 1 1 2 1 2 2 2 3 4 6 4 5 7 8 11 7 6 6 7 11 7 5 5 5 5 4 4 3
4 4 4 4 4 4 5 4 4 3 4 3 5 8 9 2 4 2 2 2 2 2 2 1 3 6 5 7 9 8 11 10 9 6 7 7 10 6 5 5 6 5 5 4 4
4 4 4 4 4 5 5 4 3 3 2 4 4 9 7 6 4 2 2 2 3 3 4 4 6 8 8 8 12 10 10 10 11 8 7 9 9 6 5 5 6 5 5 5 5
4 4 4 4 4 5 6 5 5 6 6 7 7 6 4 3 2 4 2 3 3 5 7 6 9 10 8 9 8 9 9 9 9 7 8 9 9 7 6 6 6 6 5 5 4
5 4 4 4 5 5 7 6 3 4 7 5 5 5 4 4 5 4 3 5 6 8 7 8 10 8 7 8 8 8 9 10 8 7 8 8 9 7 6 6 6 6 5 5 5
5 5 5 5 5 6 6 4 1 3 8 6 5 6 6 5 6 5 5 5 7 7 7 9 8 6 8 8 8 9 9 10 10 7 8 8 9 9 6 6 5 5 5 4 4
4 5 5 6 5 5 4 2 2 3 10 8 7 6 5 5 7 4 3 5 6 8 8 8 6 7 8 8 9 10 8 8 8 10 13 9 13 10 8 7 6 6 5 5 4
4 4 5 6 7 6 2 2 3 4 14 7 7 4 6 7 7 6 4 5 8 7 9 9 8 8 9 8 7 9 8 9 8 10 11 11 12 10 8 9 8 6 5 5 4
4 4 5 5 6 5 3 2 4 10 13 8 6 8 8 7 6 6 6 6 5 7 7 8 7 8 9 6 7 7 9 9 10 12 15 12 12 12 10 9 8 6 5 5 4
4 5 6 4 4 3 3 4 10 13 7 8 9 8 8 8 8 8 7 9 10 11 11 9 8 8 7 9 8 9 12 15 15 15 14 11 12 11 8 6 6 7 6 5 4
5 5 5 4 3 4 3 7 13 8 8 8 8 9 9 8 8 8 8 10 8 9 11 12 12 9 8 9 10 10 12 15 16 15 14 11 13 11 7 6 6 8 7 5 4
5 3 4 3 3 3 6 11 10 8 7 8 9 10 10 8 8 9 9 9 8 8 12 13 11 8 7 7 9 10 11 11 15 13 14 12 10 8 6 7 6 6 6 6 5
5 3 3 3 2 5 8 10 8 7 6 7 9 9 11 9 9 10 10 8 8 7 8 10 12 9 8 8 8 9 9 13 13 15 16 14 13 13 9 9 7 7 7 6 5
4 5 2 1 3 7 10 9 7 6 6 7 8 9 9 9 9 9 9 7 7 7 8 10 12 11 10 11 10 11 12 10 12 13 15 16 14 9 8 8 8 7 6 6 5
3 7 2 2 7 7 9 8 7 6 6 7 7 8 8 7 9 9 9 7 6 6 9 9 11 13 11 8 7 8 11 11 13 13 13 13 13 7 7 7 6 7 6 6 5
5 5 2 3 9 8 7 7 6 7 7 6 8 7 6 8 10 8 8 6 6 7 9 9 12 14 12 12 9 11 11 8 11 12 13 14 13 7 7 7 6 7 6 6 5
5 8 5 4 5 7 8 7 7 5 6 6 6 6 7 8 8 8 8 6 6 7 3 6 12 12 13 12 10 11 10 10 10 13 14 12 11 9 7 7 6 6 6 6 5
4 7 5 8 7 6 6 7 7 7 5 5 6 6 7 9 8 8 7 7 7 6 7 9 12 10 10 9 8 9 10 9 10 9 11 12 10 9 8 7 6 6 5 5 6
6 7 5 6 6 7 7 7 7 7 6 7 7 6 7 8 8 8 7 9 9 8 10 9 11 9 11 8 9 9 8 9 9 9 9 9 10 6 6 6 6 6 6 6 5
3 3 5 7 7 7 7 7 7 6 5 5 5 6 7 6 5 5 5 7 6 8 9 10 11 12 13 9 9 12 10 10 9 9 9 11 9 6 7 6 6 6 6 5 5